Change the Weather History Date:

Sunday, February 2, 2014

  Actual Average Record
Temperature  
Mean Temperature 26 °F -  
Max Temperature 34 °F 33 °F 45 °F (2011)
Min Temperature 18 °F 27 °F 17 °F (2007)
Degree Days  
Heating Degree Days 39    
Moisture  
Dew Point 24 °F    
Average Humidity 100    
Maximum Humidity 100    
Minimum Humidity 100    
Precipitation  
Precipitation 0.00 in - - ()
Sea Level Pressure  
Sea Level Pressure 30.41 in    
Wind  
Wind Speed 1 mph (East)    
Max Wind Speed 5 mph    
Max Gust Speed -    
Visibility 10 miles    
Events      
Averages and records for this station are not official NWS values.
T = Trace of Precipitation, MM = Missing Value Source: NWS Daily Summary

Daily Weather History Graph

Daily Weather History Graph

Search for Another Location

Airport or City:

Trip Planner

Search our weather history database for the weather conditions in past years. The results will help you decide how hot, cold, wet, or windy it might be!

Date:

Astronomy

Feb. 02, 2014 Rise Set
Actual Time 8:03 AM AKST 4:28 PM AKST
Civil Twilight 7:19 AM AKST 5:12 PM AKST
Nautical Twilight 6:31 AM AKST 6:00 PM AKST
Astronomical Twilight 5:46 AM AKST 6:46 PM AKST
Moon 8:40 AM AKST (2/2) 9:23 PM AKST (2/2)
Length of Visible Light 9h 52m
Length of Day
8h 25m
Waxing Crescent, 12% of the Moon is Illuminated
Feb 2
Waxing Crescent
Feb 6
First Quarter
Feb 14
Full
Feb 22
Last Quarter
Feb 28
New

Hourly Weather History & Observations

Time (AKST) Temp. Windchill Dew Point Humidity Pressure Visibility Wind Dir Wind Speed Gust Speed Precip Events Conditions
12:56 AM 19.0 °F - 19.0 °F 100% 30.36 in 10.0 mi Calm Calm - N/A   Clear
1:56 AM 19.0 °F - 19.0 °F 100% 30.37 in 10.0 mi Calm Calm - N/A   Clear
2:56 AM 19.0 °F - 19.0 °F 100% 30.37 in 10.0 mi Calm Calm - N/A   Clear
3:56 AM 20.1 °F 15.2 °F 20.1 °F 100% 30.37 in 10.0 mi ESE 3.5 mph - N/A   Clear
4:56 AM 20.1 °F - 20.1 °F 100% 30.37 in 10.0 mi Calm Calm - N/A   Clear
5:56 AM 19.0 °F - 19.0 °F 100% 30.37 in 10.0 mi Calm Calm - N/A   Clear
6:56 AM 19.0 °F 13.9 °F 19.0 °F 100% 30.38 in 10.0 mi ESE 3.5 mph - N/A   Clear
7:56 AM 18.1 °F - 18.1 °F 100% 30.38 in 10.0 mi Calm Calm - N/A   Clear
8:56 AM 19.0 °F - 19.0 °F 100% 30.40 in 10.0 mi Calm Calm - N/A   Partly Cloudy
9:56 AM 23.0 °F - 23.0 °F 100% 30.40 in 10.0 mi Calm Calm - N/A   Clear
10:56 AM 27.1 °F - 27.1 °F 100% 30.40 in 10.0 mi Calm Calm - N/A   Clear
11:56 AM 30.0 °F 26.5 °F 30.0 °F 100% 30.41 in 10.0 mi NNE 3.5 mph - N/A   Clear
12:56 PM 34.0 °F - 34.0 °F 100% 30.41 in 10.0 mi Calm Calm - N/A   Clear
1:56 PM 34.9 °F - 34.9 °F 100% 30.42 in 10.0 mi Calm Calm - N/A   Clear
2:56 PM 34.0 °F - 34.0 °F 100% 30.41 in 10.0 mi Calm Calm - N/A   Clear
3:56 PM 31.1 °F - 31.1 °F 100% 30.41 in 6.0 mi Calm Calm - N/A   Clear
4:56 PM 29.1 °F - 29.1 °F 100% 30.42 in 10.0 mi Calm Calm - N/A   Clear
5:56 PM 27.1 °F 23.2 °F 27.1 °F 100% 30.42 in 10.0 mi East 3.5 mph - N/A   Clear
6:56 PM 24.1 °F - 24.1 °F 100% 30.42 in 10.0 mi Calm Calm - N/A   Clear
7:56 PM 23.0 °F 17.0 °F 23.0 °F 100% 30.44 in 10.0 mi East 4.6 mph - N/A   Clear
8:56 PM 24.1 °F - 24.1 °F 100% 30.45 in 10.0 mi Calm Calm - N/A   Clear
9:56 PM 23.0 °F 18.4 °F 23.0 °F 100% 30.47 in 10.0 mi East 3.5 mph - N/A   Clear
10:56 PM 22.1 °F - 22.1 °F 100% 30.48 in 10.0 mi Calm Calm - N/A   Clear
11:56 PM 24.1 °F - 24.1 °F 100% 30.49 in 10.0 mi Calm Calm - N/A   Clear